Location: Cicognara
(44.9500°N, 10.4667°E)
Time: 21:27:02
(UTC+00:00)

Cosmos 1867 - Pass Details

Date: 20 June 2021
Orbit: 773 x 802 km, 65.0° (Epoch: 23 July)

Event Time Altitude Azimuth Distance (km) Brightness Sun altitude
Rises 21:17:59 0° 324° (NW) 3,321 8.6 -16.2°
Reaches altitude 10° 21:20:26 10° 325° (NW) 2,387 7.4 -16.4°
Maximum altitude 21:25:57 86° 54° (NE) 809 3.6 -16.8°
Enters shadow 21:28:53 29° 144° (SE) 1,445 4.3 -17.1°
